[Iaude] MPEC V218: 2023 VP7 [a=1.23,e=0.18,i=18.8,H=23.5]
    mpec at marsden.cfa.harvard.edu 
    mpec at marsden.cfa.harvard.edu
       
    Sun Nov 12 13:18:22 EST 2023
    
    
  
M.P.E.C. 2023-V218                            Issued 2023 November 12, 18:16 UT
     The Minor Planet Electronic Circulars contain information on unusual
         minor planets, routine data on comets and natural satellites,
         and occasional editorial announcements.  They are published
    on behalf of Division F of the International Astronomical Union by the
          Minor Planet Center, Smithsonian Astrophysical Observatory,
                          Cambridge, MA 02138, U.S.A.
			  
             Prepared using the Tamkin Foundation Computer Network
                              MPC at CFA.HARVARD.EDU
            URL https://www.minorplanetcenter.net/    ISSN 1523-6714
                                    2023 VP7                                    
Observations:
     K23V07P*1C2023 11 11.10519723 53 52.141+29 27 56.52         19.30GVEV218703
     K23V07P 1C2023 11 11.11051523 53 54.085+29 26 43.01         19.28GVEV218703
     K23V07P 1C2023 11 11.11583923 53 56.008+29 25 29.14         19.86GVEV218703
     K23V07P 1C2023 11 11.12116423 53 57.937+29 24 13.82         19.31GVEV218703
     K23V07P mC2023 11 11.22117723 54 33.376+29 00 41.72               VEV218I52
     K23V07P mC2023 11 11.22334623 54 34.150+29 00 10.66         18.99GVEV218I52
     K23V07P mC2023 11 11.22539023 54 34.880+28 59 41.46         18.97GVEV218I52
     K23V07P KC2023 11 11.73941023 58 10.94 +26 54 57.0          19.5 GVEV218L01
     K23V07P KC2023 11 11.74089423 58 11.57 +26 54 35.5          19.7 GVEV218L01
     K23V07P KC2023 11 11.74238023 58 12.11 +26 54 13.7          19.0 GVEV218L01
     K23V07P KC2023 11 11.74318 23 58 12.91 +26 53 58.5                VEV218204
     K23V07P KC2023 11 11.74386323 58 12.61 +26 53 52.0          19.0 GVEV218L01
     K23V07P KC2023 11 11.74543923 58 13.20 +26 53 28.8          19.6 GVEV218L01
     K23V07P KC2023 11 11.74701623 58 13.81 +26 53 05.4          19.1 GVEV218L01
     K23V07P KC2023 11 11.74848 23 58 14.89 +26 52 40.6                VEV218204
     K23V07P KC2023 11 11.74911623 58 14.59 +26 52 34.5          19.2 GVEV218L01
     K23V07P KC2023 11 11.75370 23 58 16.83 +26 51 23.9          19.0 GVEV218204
     K23V07P KB2023 11 11.75905 23 58 18.67 +26 50 06.1          18.9 GVEV218130
     K23V07P KB2023 11 11.76296 23 58 20.07 +26 49 09.2          18.5 GVEV218130
     K23V07P KB2023 11 11.76693 23 58 21.62 +26 48 10.2          18.9 GVEV218130
     K23V07P KC2023 11 11.92889 23 59 21.55 +26 07 46.1          19.6 GVEV218104
     K23V07P KC2023 11 11.93275 23 59 23.03 +26 06 46.8          18.8 GVEV218104
     K23V07P KC2023 11 11.93652 23 59 24.47 +26 05 49.6          18.8 GVEV218104
     K23V07P KC2023 11 11.94231 23 59 25.65 +26 04 25.9          19.4 VZEV218M63
     K23V07P KC2023 11 11.94659 23 59 27.31 +26 03 20.0          19.4 VZEV218M63
     K23V07P KC2023 11 11.95471 23 59 30.43 +26 01 16.1          19.4 VZEV218M63
     K23V07P KC2023 11 11.95927 23 59 32.14 +26 00 06.7          19.3 VZEV218M63
     K23V07P KC2023 11 12.15564 00 01 01.351+25 10 31.33         19.2 GVEV218U52
     K23V07P KC2023 11 12.15860 00 01 02.429+25 09 45.65         19.5 GVEV218U52
     K23V07P KC2023 11 12.16157 00 01 03.540+25 09 00.61         19.0 GVEV218U52
     K23V07P KB2023 11 12.25836 00 01 36.42 +24 44 02.4          18.8 GVEV218734
     K23V07P KB2023 11 12.26290 00 01 38.16 +24 42 51.3          18.7 GVEV218734
     K23V07P KB2023 11 12.26731 00 01 39.85 +24 41 42.4          18.7 GVEV218734
     K23V07P KC2023 11 12.70867900 04 54.578+22 45 50.00         19.3 GVEV218K63
     K23V07P KC2023 11 12.73491100 05 04.740+22 38 52.73         19.1 GVEV218K63
Observer details:
104 San Marcello Pistoiese.  Observers P. Bacci, M. Maestripieri, M. D.
    Grazia.  Measurer P. Bacci.  0.60-m f/4 reflector + CCD.
130 Lumezzane.  Observers A. Coffano, W. Marinello, M. Micheli, G. Pizzetti,
    A. Soffiantini.  Measurer W. Marinello.  0.40-m f/6 reflector + CMO.
204 Schiaparelli Observatory.  Observers L. Buzzi, G. Galli.  0.84-m f/3.5
    reflector + CCD.
703 Catalina Sky Survey.  Observer R. A. Kowalski.  Measurers E. C. Beshore,
    D. Fay, J. B. Fazekas, D. C. Fuls, A. R. Gibbs, A. D. Grauer, H. Groeller,
    J. K. Hogan, R. A. Kowalski, S. M. Larson, G. J. Leonard, D. Rankin, R. L.
    Seaman, F. C. Shelly, K. W. Wierzchos.  0.68-m Schmidt + 10K CCD.
734 Farpoint Observatory, Eskridge.  Observers D. Cromer, G. Hug, D. Goodin,
    R. Valentine.  Measurer D. Cromer.  0.69-m f/3.54 reflector + CMO.
I52 Steward Observatory, Mt. Lemmon Station.  Observer J. K. Hogan.  Measurers
    E. C. Beshore, D. Fay, J. B. Fazekas, D. C. Fuls, A. R. Gibbs, A. D.
    Grauer, H. Groeller, J. K. Hogan, R. A. Kowalski, S. M. Larson, G. J.
    Leonard, D. Rankin, R. L. Seaman, F. C. Shelly, K. W. Wierzchos.  1.0-m
    prime focus + CCD.
K63 G. Pascoli Observatory, Castelvecchio Pascoli.  Observer R. Bacci.  0.41-m
    f/3.75 0.41m f/3.2  Newton + CCD.
L01 Visnjan Observatory, Tican.  Observer K. Korlevic.  1.0-m f/2.9 reflector
    + CCD.
M63 RPF Observatory, Gagliano del Capo.  Observer D. Licchelli.  0.30-m f/5.3
    reflector + CCD.
U52 Shasta Valley Observatory, Grenada.  Observers J. E. Rogers, B. Haeusler.
    Measurers J. E. Rogers, D. Parrott.  0.30-m f/5.2 Helin Telescope + CCD.
Orbital elements:
2023 VP7                                                 Earth MOID = 0.0424 AU
Epoch 2023 Sept. 13.0 TT = JDT 2460200.5                MPC                     
M 293.05376              (2000.0)            P               Q                  
n   0.72293894     Peri.  208.92528     +0.19049230     -0.94887847             
a   1.2295182      Node   231.26852     +0.95130156     +0.24171971             
e   0.1753032      Incl.   18.82202     +0.24235928     -0.20298085             
P   1.36           H   23.54          G   0.15           U   7                  
Residuals in seconds of arc
231111 703  0.2-  0.0     231111 L01  0.8-  0.3+    231111 M63  0.4+  0.5-
231111 703  0.4+  0.5+    231111 L01  0.5-  0.1+    231111 M63  0.5+  0.2-
231111 703  0.7+  0.8+    231111 204  0.2+  0.3-    231111 M63  0.1-  0.2+
231111 703  1.1+  0.3-    231111 L01  0.5-  0.1+    231112 U52  0.0   0.4+
231111 I52  0.0   0.0     231111 204  0.0   0.2-    231112 U52  0.2-  0.1-
231111 I52  0.0   0.0     231111 130  0.2-  0.1-    231112 U52  0.1-  0.3+
231111 I52  0.0   0.0     231111 130 (1.0-  0.7+)   231112 734  0.2+  0.1-
231111 L01  1.0-  0.2-    231111 130  0.0   0.2+    231112 734  0.1+  0.1-
231111 L01  0.1+  0.1+    231111 104  0.4-  0.2+    231112 734  0.1+  0.1+
231111 L01  0.1-  0.2+    231111 104  0.0   0.3-    231112 K63  0.2-  0.6+
231111 204  0.3+  0.3-    231111 104  0.2+  0.1-    231112 K63  0.5+  0.5-
231111 L01  0.9-  0.3+    231111 M63  0.1+  0.1-
Ephemeris:
2023 VP7                 a,e,i = 1.23, 0.18, 19                  q = 1.0140
Date    TT    R. A. (2000) Decl.     Delta      r    Elong.  Phase     V
2023 10 13    22 09 39.2 +65 51 31   0.2116  1.1007   113.9    56.0    22.4
...
2023 10 28    22 39 29.1 +58 24 29   0.1326  1.0669   120.3    53.5    21.3
...
2023 11 05    23 16 09.0 +47 14 10   0.09340 1.0514   127.7    48.3    20.3
...
2023 11 11    23 53 06.3 +29 52 45   0.07033 1.0413   135.2    42.1    19.5
2023 11 12    23 59 54.7 +25 50 52   0.06755 1.0398   136.1    41.3    19.4
2023 11 13    00 06 51.8 +21 28 34   0.06519 1.0383   136.8    40.7    19.3
...
2023 11 19    00 50 34.8 -08 44 10   0.06212 1.0301   130.8    46.6    19.3
...
2023 11 27    01 48 30.5 -38 36 09   0.08489 1.0217   112.0    63.6    20.5
...
2023 12 12    03 14 17.6 -56 35 35   0.1553  1.0141    96.5    74.7    22.1
A. U. Tomatic                (C) Copyright 2023 MPC           M.P.E.C. 2023-V218
    
    
More information about the Iaude
mailing list